Starlink 3301

operational
NORAD ID: 50169 Int'l Des: 2021-125 Owner: SPXS Country: US Constellation: starlink
LEOCIRCULAR

Über Starlink 3301

Beschreibung wird geladen...

Live-Position

3D-Globus wird geladen...

Nächste Überflüge

Höhenverlauf

Altitude vs Time

uPlot chart will show altitude changes over time

Zweizeiliger Elementsatz

1 50169U 21125P 25305.17490779 .00000638 00000-0 58186-4 0 9990
2 50169 53.2153 106.0452 0001111 93.3739 266.7380 15.08835606217204
Epoch: 1. Nov. 2025 • Age: 35 hours

Aktueller Status

Höhe 557.0 km
Geschwindigkeit 7.58 km/s
Subsatellitenpunkt -48.08°S, 138.42°E
Startdatum 18. Dez. 2021
Alter 3.8 years
Typ internet

Technische Details

Klassifizierung Payload
Masse 290.00 kg
Trockenmasse 270.00 kg
Gesamtmasse 290.00 kg
Länge 0.20 m
Durchmesser 2.80 m
Spannweite 9.00 m
Form Box + pan
Hersteller SPXS
Bus-Typ Starlink
Phasenstatus In Orbit
Besitzer/Staat SPXS/US

Große Konstellationen

Loading constellations...